Cosmos 2266 Rocket - Orbit

View from above orbital plane
View from above orbital plane
View from above satellite
View from above satellite

Ground track
Ground track

The orbit data is extracted from the following two-line orbital elements,

1 22889U 93070B   13139.52893122  .00000163  00000-0  14638-3 0  7765
2 22889 082.9444 346.3842 0051348 086.7030 332.4633 13.77688668982516
Epoch (UTC): 19 May 2013 12:41:39
Eccentricity: 0.0051348
inclination: 82.9444°
perigee height: 934 km
apogee height: 1010 km
right ascension of ascending node: 346.3842°
argument of perigee: 86.7030°
revolutions per day: 13.77688668
mean anomaly at epoch: 332.4633°
orbit number at epoch: 98251

The dashed part of the orbit path shows where the satellite is in the earth's shadow,  

Developed and maintained by Chris Peat, Heavens-Above GmbH. Please read the updated FAQ before sending e-mail. Imprint. DLR